Location: Vancouver
(49.2500°N, 123.1330°W)
Time: 19:36:02
(UTC-08:00)

SO-67 - Visible Passes

Search period start: 23 November 2014 00:00
Search period end: 03 December 2014 00:00
Orbit: 457 x 458 km, 97.1° (Epoch: 23 November)

Date Brightness Start Highest point End Pass type
(mag) Time Alt. Az. Time Alt. Az. Time Alt. Az.
23 Nov ? 06:25:47 10° NE 06:27:58 16° E 06:30:09 10° SE visible
23 Nov ? 17:03:15 10° E 17:04:29 12° ENE 17:05:43 10° NE visible
23 Nov ? 18:33:31 10° S 18:36:56 64° W 18:40:22 10° NNW visible
24 Nov ? 18:00:58 10° SSE 18:04:16 49° ENE 18:07:37 10° N visible
24 Nov ? 19:35:50 10° WSW 19:37:30 13° W 19:39:10 10° WNW visible
25 Nov ? 06:52:35 10° NNE 06:55:42 32° E 06:58:48 10° SSE visible
25 Nov ? 17:29:05 10° ESE 17:31:44 21° ENE 17:34:25 10° NNE visible
25 Nov ? 19:01:30 10° SSW 19:04:32 29° W 19:07:36 10° NNW visible
26 Nov ? 06:20:51 10° ENE 06:22:45 14° E 06:24:37 10° ESE visible
26 Nov ? 16:58:48 10° ENE 16:59:19 10° ENE 16:59:50 10° NE visible
26 Nov ? 18:28:16 10° S 18:31:42 75° WSW 18:35:09 10° NNW visible
27 Nov ? 17:55:43 10° SE 17:58:59 42° ENE 18:02:15 10° N visible
27 Nov ? 19:30:07 10° SW 19:32:07 15° W 19:34:09 10° NW visible
28 Nov ? 06:47:18 10° NE 06:50:19 28° E 06:53:18 10° SSE visible
28 Nov ? 17:23:53 10° ESE 17:26:23 19° ENE 17:28:52 10° NNE visible
28 Nov ? 18:55:57 10° SSW 18:59:06 33° W 19:02:16 10° NNW visible
29 Nov ? 06:15:46 10° ENE 06:17:14 12° E 06:18:42 10° ESE visible
29 Nov ? 18:22:46 10° SSE 18:26:12 87° WSW 18:29:39 10° NNW visible
30 Nov ? 17:50:14 10° SE 17:53:24 36° ENE 17:56:36 10° N visible
30 Nov ? 19:24:10 10° SW 19:26:29 17° W 19:28:48 10° NW visible
01 Dec ? 06:41:47 10° NE 06:44:39 24° E 06:47:29 10° SSE visible
01 Dec ? 17:18:28 10° ESE 17:20:45 17° ENE 17:23:01 10° NNE visible
01 Dec ? 18:50:09 10° SSW 18:53:23 39° W 18:56:39 10° NNW visible
02 Dec ? 06:10:42 10° ENE 06:11:27 11° E 06:12:12 10° E visible
02 Dec ? 18:17:00 10° SSE 18:20:25 80° ENE 18:23:52 10° N visible
